Location: Bednik
(45.3500°N, 16.3833°E)
Time: 21:52:41
(UTC+00:00)

Meteor 1-18 Rocket - Pass Details

Date: 08 August 2020
Orbit: 836 x 910 km, 81.2° (Epoch: 21 September)

Event Time Altitude Azimuth Distance (km) Brightness Sun altitude
Rises 21:00:26 0° 346° (NNW) 3,428 8.6 -23.1°
Reaches altitude 10° 21:02:53 10° 344° (NNW) 2,479 7.7 -23.3°
Maximum altitude 21:08:25 64° 264° (W) 925 4.4 -23.8°
Enters shadow 21:09:59 45° 204° (SSW) 1,131 4.5 -23.9°
